Hourly Weather Plymouth

Today, 23 October, Friday

Time Temperature Precipitation Wind Pressure Humidity
00:00 +10°C° 0.1 mm 3 mps 755 mmHg 97%
01:00 +10°C° 0 mm 3 mps 755 mmHg 96%
02:00 +10°C° 0 mm 3 mps 754 mmHg 96%
03:00 +9°C° 0 mm 3 mps 754 mmHg 96%
04:00 +9°C° 0 mm 3 mps 754 mmHg 96%
05:00 +9°C° 0 mm 3 mps 754 mmHg 95%
06:00 +8°C° 0 mm 3 mps 754 mmHg 94%
07:00 +8°C° 0 mm 4 mps 754 mmHg 91%
08:00 +8°C° 0 mm 5 mps 755 mmHg 88%
09:00 +9°C° 0 mm 6 mps 755 mmHg 85%
10:00 +10°C° 0 mm 7 mps 755 mmHg 85%
11:00 +10°C° 0 mm 7 mps 755 mmHg 86%
12:00 +11°C° 0 mm 8 mps 756 mmHg 86%
13:00 +11°C° 0.1 mm 8 mps 756 mmHg 83%
14:00 +11°C° 0.1 mm 7 mps 756 mmHg 80%
15:00 +11°C° 0.1 mm 6 mps 756 mmHg 77%
16:00 +9°C° 0 mm 6 mps 756 mmHg 78%
17:00 +8°C° 0 mm 5 mps 757 mmHg 80%
18:00 +7°C° 0 mm 5 mps 757 mmHg 82%
19:00 +7°C° 0 mm 5 mps 757 mmHg 83%
20:00 +6°C° 0 mm 5 mps 757 mmHg 84%
21:00 +6°C° 0 mm 5 mps 757 mmHg 85%
22:00 +7°C° 0 mm 6 mps 757 mmHg 84%
23:00 +8°C° 0 mm 6 mps 757 mmHg 83%

Tomorrow, 24 October, Saturday

Time Temperature Precipitation Wind Pressure Humidity
00:00 +8°C° 0 mm 7 mps 756 mmHg 82%
01:00 +9°C° 0 mm 8 mps 756 mmHg 81%
02:00 +9°C° 0 mm 8 mps 755 mmHg 81%
03:00 +10°C° 0 mm 9 mps 755 mmHg 81%
04:00 +10°C° 0 mm 9 mps 754 mmHg 81%
05:00 +11°C° 0 mm 10 mps 753 mmHg 82%
06:00 +11°C° 0 mm 11 mps 753 mmHg 83%
07:00 +12°C° 0 mm 12 mps 752 mmHg 85%
08:00 +12°C° 0 mm 12 mps 751 mmHg 87%
09:00 +13°C° 0 mm 13 mps 751 mmHg 90%
10:00 +13°C° 0.1 mm 13 mps 750 mmHg 89%
11:00 +14°C° 0.1 mm 14 mps 749 mmHg 89%
12:00 +14°C° 0.1 mm 14 mps 749 mmHg 89%
13:00 +14°C° 0.5 mm 14 mps 748 mmHg 89%
14:00 +14°C° 0.5 mm 15 mps 748 mmHg 90%
15:00 +14°C° 0.5 mm 15 mps 747 mmHg 90%
16:00 +13°C° 2.9 mm 12 mps 746 mmHg 92%
17:00 +11°C° 2.9 mm 10 mps 746 mmHg 93%
18:00 +10°C° 2.9 mm 7 mps 745 mmHg 95%
19:00 +10°C° 0.7 mm 7 mps 746 mmHg 93%
20:00 +10°C° 0.7 mm 7 mps 746 mmHg 92%
21:00 +10°C° 0.7 mm 8 mps 746 mmHg 91%
22:00 +9°C° 0.1 mm 8 mps 746 mmHg 89%
23:00 +9°C° 0.1 mm 8 mps 747 mmHg 87%

Day after tomorrow, 25 October, Sunday

Time Temperature Precipitation Wind Pressure Humidity
00:00 +9°C° 0.1 mm 8 mps 747 mmHg 86%
01:00 +7°C° 0.1 mm 8 mps 747 mmHg 85%
02:00 +7°C° 0.1 mm 8 mps 747 mmHg 84%
03:00 +7°C° 0.1 mm 8 mps 747 mmHg 83%
04:00 +7°C° 0.1 mm 8 mps 747 mmHg 84%
05:00 +7°C° 0.1 mm 8 mps 747 mmHg 85%
06:00 +7°C° 0.1 mm 8 mps 747 mmHg 86%
07:00 +7°C° 0.3 mm 8 mps 747 mmHg 84%
08:00 +9°C° 0.3 mm 8 mps 747 mmHg 83%
09:00 +9°C° 0.3 mm 8 mps 748 mmHg 81%
10:00 +10°C° 0.3 mm 8 mps 748 mmHg 78%
11:00 +11°C° 0.3 mm 8 mps 748 mmHg 76%
12:00 +11°C° 0.3 mm 9 mps 748 mmHg 73%
13:00 +11°C° 0.3 mm 8 mps 748 mmHg 75%
14:00 +11°C° 0.3 mm 8 mps 747 mmHg 76%
15:00 +11°C° 0.3 mm 7 mps 747 mmHg 78%
16:00 +9°C° 0.1 mm 6 mps 748 mmHg 81%
17:00 +8°C° 0.1 mm 6 mps 748 mmHg 84%
18:00 +7°C° 0.1 mm 5 mps 748 mmHg 87%
19:00 +7°C° 0.3 mm 4 mps 748 mmHg 88%
20:00 +7°C° 0.3 mm 4 mps 748 mmHg 89%
21:00 +6°C° 0.3 mm 4 mps 748 mmHg 89%
22:00 +7°C° 0.4 mm 3 mps 749 mmHg 89%
23:00 +7°C° 0.4 mm 3 mps 749 mmHg 89%

, 26 October, Monday

Time Temperature Precipitation Wind Pressure Humidity
00:00 +7°C° 0.4 mm 3 mps 749 mmHg 89%
01:00 +6°C° 0.1 mm 4 mps 749 mmHg 89%
02:00 +6°C° 0.1 mm 4 mps 749 mmHg 89%
03:00 +6°C° 0.1 mm 5 mps 750 mmHg 89%
04:00 +6°C° 0 mm 5 mps 750 mmHg 90%
05:00 +6°C° 0 mm 5 mps 751 mmHg 90%
06:00 +6°C° 0 mm 5 mps 751 mmHg 91%
07:00 +7°C° 0 mm 5 mps 752 mmHg 88%
08:00 +7°C° 0 mm 4 mps 753 mmHg 86%
09:00 +8°C° 0 mm 4 mps 753 mmHg 83%
10:00 +10°C° 0 mm 4 mps 754 mmHg 80%
11:00 +10°C° 0 mm 5 mps 754 mmHg 76%
12:00 +12°C° 0 mm 5 mps 754 mmHg 73%
13:00 +12°C° 0 mm 5 mps 755 mmHg 73%
14:00 +12°C° 0 mm 5 mps 755 mmHg 74%
15:00 +10°C° 0 mm 5 mps 755 mmHg 74%
16:00 +10°C° 0 mm 4 mps 755 mmHg 79%
17:00 +7°C° 0 mm 4 mps 756 mmHg 84%
18:00 +7°C° 0 mm 3 mps 756 mmHg 89%
19:00 +7°C° 0 mm 3 mps 756 mmHg 89%
20:00 +7°C° 0 mm 3 mps 756 mmHg 89%
21:00 +6°C° 0 mm 2 mps 756 mmHg 89%
22:00 +7°C° 0 mm 3 mps 756 mmHg 88%
23:00 +7°C° 0 mm 3 mps 756 mmHg 88%

26 October, Monday

Time Temperature Precipitation Wind Pressure Humidity
00:00 +7°C° 0.4 mm 3 mps 749 mmHg 89%
01:00 +6°C° 0.1 mm 4 mps 749 mmHg 89%
02:00 +6°C° 0.1 mm 4 mps 749 mmHg 89%
03:00 +6°C° 0.1 mm 5 mps 750 mmHg 89%
04:00 +6°C° 0 mm 5 mps 750 mmHg 90%
05:00 +6°C° 0 mm 5 mps 751 mmHg 90%
06:00 +6°C° 0 mm 5 mps 751 mmHg 91%
07:00 +7°C° 0 mm 5 mps 752 mmHg 88%
08:00 +7°C° 0 mm 4 mps 753 mmHg 86%
09:00 +8°C° 0 mm 4 mps 753 mmHg 83%
10:00 +10°C° 0 mm 4 mps 754 mmHg 80%
11:00 +10°C° 0 mm 5 mps 754 mmHg 76%
12:00 +12°C° 0 mm 5 mps 754 mmHg 73%
13:00 +12°C° 0 mm 5 mps 755 mmHg 73%
14:00 +12°C° 0 mm 5 mps 755 mmHg 74%
15:00 +10°C° 0 mm 5 mps 755 mmHg 74%
16:00 +10°C° 0 mm 4 mps 755 mmHg 79%
17:00 +7°C° 0 mm 4 mps 756 mmHg 84%
18:00 +7°C° 0 mm 3 mps 756 mmHg 89%
19:00 +7°C° 0 mm 3 mps 756 mmHg 89%
20:00 +7°C° 0 mm 3 mps 756 mmHg 89%
21:00 +6°C° 0 mm 2 mps 756 mmHg 89%
22:00 +7°C° 0 mm 3 mps 756 mmHg 88%
23:00 +7°C° 0 mm 3 mps 756 mmHg 88%

27 October, Tuesday

Time Temperature Precipitation Wind Pressure Humidity
00:00 +6°C° 0 mm 4 mps 755 mmHg 88%
01:00 +7°C° 0.1 mm 5 mps 755 mmHg 87%
02:00 +8°C° 0.1 mm 6 mps 754 mmHg 85%
03:00 +9°C° 0.1 mm 7 mps 754 mmHg 84%
04:00 +9°C° 0.3 mm 8 mps 753 mmHg 87%
05:00 +8°C° 0.3 mm 9 mps 753 mmHg 89%
06:00 +9°C° 0.3 mm 10 mps 752 mmHg 92%
07:00 +9°C° 0.7 mm 10 mps 751 mmHg 93%
08:00 +9°C° 0.7 mm 11 mps 751 mmHg 94%
09:00 +10°C° 0.7 mm 12 mps 750 mmHg 95%
10:00 +11°C° 0.7 mm 11 mps 750 mmHg 96%
11:00 +12°C° 0.7 mm 11 mps 749 mmHg 96%
12:00 +13°C° 0.7 mm 11 mps 749 mmHg 96%
13:00 +13°C° 0.4 mm 10 mps 749 mmHg 92%
14:00 +13°C° 0.4 mm 9 mps 749 mmHg 87%
15:00 +13°C° 0.4 mm 8 mps 749 mmHg 83%
16:00 +12°C° 0.1 mm 8 mps 749 mmHg 84%
17:00 +11°C° 0.1 mm 8 mps 750 mmHg 85%
18:00 +10°C° 0.1 mm 8 mps 750 mmHg 87%
19:00 +9°C° 0 mm 7 mps 751 mmHg 87%
20:00 +9°C° 0 mm 7 mps 751 mmHg 87%
21:00 +8°C° 0 mm 7 mps 752 mmHg 87%
22:00 +8°C° 0 mm 7 mps 752 mmHg 86%
23:00 +7°C° 0 mm 8 mps 752 mmHg 86%

28 October, Wednesday

Time Temperature Precipitation Wind Pressure Humidity
00:00 +6°C° 0 mm 8 mps 752 mmHg 85%
01:00 +7°C° 0.1 mm 8 mps 752 mmHg 85%
02:00 +7°C° 0.1 mm 8 mps 752 mmHg 85%
03:00 +7°C° 0.1 mm 9 mps 752 mmHg 84%
04:00 +7°C° 0.1 mm 8 mps 752 mmHg 84%
05:00 +7°C° 0.1 mm 8 mps 753 mmHg 83%
06:00 +6°C° 0.1 mm 8 mps 753 mmHg 83%
07:00 +7°C° 0.1 mm 8 mps 753 mmHg 82%
08:00 +8°C° 0.1 mm 9 mps 753 mmHg 81%
09:00 +10°C° 0.1 mm 9 mps 753 mmHg 80%
10:00 +9°C° 0.2 mm 10 mps 754 mmHg 79%
11:00 +11°C° 0.2 mm 10 mps 754 mmHg 77%
12:00 +11°C° 0.2 mm 10 mps 754 mmHg 75%
13:00 +11°C° 0.3 mm 10 mps 754 mmHg 77%
14:00 +11°C° 0.3 mm 10 mps 754 mmHg 78%
15:00 +11°C° 0.3 mm 10 mps 754 mmHg 80%
16:00 +9°C° 0.2 mm 10 mps 755 mmHg 82%
17:00 +8°C° 0.2 mm 9 mps 755 mmHg 84%
18:00 +8°C° 0.2 mm 9 mps 755 mmHg 87%
19:00 +8°C° 0.1 mm 9 mps 756 mmHg 87%
20:00 +7°C° 0.1 mm 8 mps 757 mmHg 87%
21:00 +7°C° 0.1 mm 8 mps 757 mmHg 87%
22:00 +7°C° 0 mm 8 mps 757 mmHg 87%
23:00 +7°C° 0 mm 8 mps 757 mmHg 87%
Show more